Salina, KS

11:21 PM CST on December 03, 2016 (GMT -0600)
Salina Municipal

Weather History for KSLN - January, 2012

Change the Weather History Date:

Tuesday, January 17, 2012

  Actual Average Record
Temperature  
Mean Temperature 18 °F 31 °F  
Max Temperature 27 °F 42 °F 69 °F (1986)
Min Temperature 9 °F 20 °F -10 °F (1930)
Degree Days  
Heating Degree Days 47 34  
Month to date heating degree days 499 578  
Since 1 July heating degree days 2384 2542  
Cooling Degree Days 0 0  
Month to date cooling degree days 0 0  
Year to date cooling degree days 0 0  
Moisture  
Dew Point 9 °F    
Average Humidity 65    
Maximum Humidity 83    
Minimum Humidity 46    
Precipitation  
Precipitation T in 0.03 in 0.35 in (1960)
Month to date precipitation T 0.29  
Year to date precipitation T 0.29  
Sea Level Pressure  
Sea Level Pressure 30.32 in    
Wind  
Wind Speed 14 mph (NW)    
Max Wind Speed 31 mph    
Max Gust Speed 38 mph    
Visibility 10 miles    
Events Snow    
T = Trace of Precipitation, MM = Missing Value Source: NWS Daily Summary

Daily Weather History Graph

Daily Weather History Graph

Search for Another Location

Airport or City:

Trip Planner

Search our weather history database for the weather conditions in past years. The results will help you decide how hot, cold, wet, or windy it might be!

Date:

Astronomy

Jan. 17, 2012 Rise Set
Actual Time 7:46 AM CST 5:34 PM CST
Civil Twilight 7:17 AM CST 6:03 PM CST
Nautical Twilight 6:45 AM CST 6:36 PM CST
Astronomical Twilight 6:13 AM CST 7:08 PM CST
Moon 2:08 AM CST (1/17) 12:28 PM CST (1/17)
Length of Visible Light 10h 45m
Length of Day
9h 47m
Waning Crescent, 35% of the Moon is Illuminated
Jan 17
Waning Crescent
Jan 23
New
Jan 30
First Quarter
Feb 7
Full
Feb 14
Last Quarter

Hourly Weather History & Observations

Time (CST) Temp. Windchill Dew Point Humidity Pressure Visibility Wind Dir Wind Speed Gust Speed Precip Events Conditions
12:53 AM 19.4 °F 0.8 °F 14.0 °F 80% 30.01 in 4.0 mi NNW 28.8 mph 36.8 mph N/A Snow Light Snow
1:48 AM 19.4 °F 3.2 °F 14.0 °F 80% 30.03 in 10.0 mi NNW 20.7 mph 27.6 mph 0.00 in   Overcast
1:53 AM 19.9 °F 3.5 °F 12.9 °F 74% 30.06 in 10.0 mi NNW 21.9 mph 28.8 mph 0.00 in   Overcast
2:19 AM 19.4 °F 3.2 °F 10.4 °F 68% 30.06 in 10.0 mi NNW 20.7 mph - N/A   Partly Cloudy
2:53 AM 19.0 °F 3.6 °F 10.9 °F 71% 30.12 in 10.0 mi NW 18.4 mph - N/A   Clear
3:53 AM 18.0 °F -0.2 °F 10.9 °F 74% 30.15 in 9.0 mi NNW 25.3 mph - 0.00 in Snow Light Snow
4:53 AM 17.1 °F 0.6 °F 10.0 °F 74% 30.19 in 10.0 mi NW 19.6 mph - 0.00 in   Clear
5:53 AM 17.1 °F -0.3 °F 9.0 °F 71% 30.25 in 10.0 mi NW 21.9 mph - N/A   Clear
6:53 AM 16.0 °F -1.3 °F 8.1 °F 71% 30.30 in 10.0 mi NNW 20.7 mph - 0.00 in   Clear
7:53 AM 15.1 °F -2.0 °F 7.0 °F 70% 30.35 in 10.0 mi NW 19.6 mph - N/A   Clear
8:53 AM 17.1 °F 1.5 °F 7.0 °F 65% 30.40 in 10.0 mi NNW 17.3 mph - N/A   Clear
9:53 AM 19.0 °F 3.6 °F 7.0 °F 59% 30.43 in 10.0 mi NNW 18.4 mph - N/A   Clear
10:53 AM 21.9 °F 7.8 °F 7.0 °F 53% 30.43 in 10.0 mi NW 17.3 mph 21.9 mph N/A   Clear
11:53 AM 23.0 °F 10.1 °F 7.0 °F 50% 30.44 in 10.0 mi NW 15.0 mph 23.0 mph N/A   Clear
12:53 PM 25.0 °F 13.6 °F 7.0 °F 46% 30.43 in 10.0 mi NNW 12.7 mph - N/A   Clear
1:53 PM 27.0 °F 16.1 °F 8.1 °F 45% 30.40 in 10.0 mi NNW 12.7 mph 18.4 mph N/A   Clear
2:53 PM 27.0 °F 15.6 °F 8.1 °F 45% 30.40 in 10.0 mi NNW 13.8 mph 21.9 mph N/A   Clear
3:53 PM 26.1 °F 15.0 °F 8.1 °F 47% 30.43 in 10.0 mi NNW 12.7 mph - N/A   Clear
4:53 PM 25.0 °F 15.5 °F 8.1 °F 49% 30.43 in 10.0 mi NW 9.2 mph - N/A   Clear
5:53 PM 21.2 °F 13.6 °F 8.6 °F 58% 30.37 in 10.0 mi NNW 5.8 mph - N/A   Clear
6:53 PM 19.0 °F 12.3 °F 7.0 °F 59% 30.43 in 10.0 mi NNE 4.6 mph - N/A   Clear
7:53 PM 17.1 °F - 6.1 °F 62% 30.44 in 10.0 mi Calm Calm - N/A   Clear
8:53 PM 14.0 °F 5.1 °F 7.0 °F 74% 30.43 in 10.0 mi South 5.8 mph - N/A   Clear
9:53 PM 10.9 °F 4.7 °F 7.0 °F 84% 30.43 in 10.0 mi South 3.5 mph - N/A   Clear
10:53 PM 10.0 °F -0.9 °F 5.0 °F 80% 30.42 in 10.0 mi South 6.9 mph - N/A   Clear
11:53 PM 10.9 °F 2.9 °F 6.1 °F 81% 30.40 in 10.0 mi South 4.6 mph - N/A   Clear